Tracking 31011 objects as of 11-Jul-2025
HD Live streaming from Space Station
objects crossing your sky now

CZ-6A DEB

Track CZ-6A DEB now!
10-day predictions


NORAD ID: 54531
Int'l Code: 2022-151KK
Perigee: 604.2 km
Apogee: 662.7 km
Inclination: 98.6 °
Period: 97.2 minutes
Semi major axis: 7004 km
RCS: Unknown
Launch date: November 11, 2022
Source: People's Republic of China (PRC)
Launch site: Taiyaun Space Center, China (TSC)

Note: This is SATELLITE DEBRIS
Your satellite tracking list
Your tracking list is empty




NASA's NSSDC Master Catalog

Two Line Element Set (TLE):
1 54531U 22151KK  25192.08794448  .00013255  00000-0  16926-2 0  9994
2 54531  98.5809 237.6352 0041780 199.2699 160.6933 14.80954862140811
Source of the keplerian elements: AFSPC